[[{"header":{"parameterUnit":"m.s-1","parameterCategory":1,"la1":30.2991,"la2":30.254,"lo1":-89.0895,"lo2":-89.0444,"dy":0.0017,"dx":0.0017,"nx":28,"ny":28,"refTime":"2025-11-27T03:00:00:Z","depth":0,"parameterNumber":2,"parameterNumberName":"U-component_of_WINDS"},"data":[0,0,0,0,0,0,0,0,0,0,0,0,0,0,0,0,0,0,0,0,0,0,0,0,0,0,0,0,0,0,0,0,0,0,0,0,0,0,0,0,0,0,0,0,0,0,0,0,0,0,0,0,0,0,0,0,0,0,-0.4208,-0.4209,0,-0.4268,-0.4269,-0.4269,-0.4234,-0.4232,-0.4231,-0.4229,-0.4292,-0.4296,-0.4299,0,0,0,0,0,0,0,0,0,0,0,0,0,-0.4065,-0.4068,-0.4208,-0.4209,-0.421,-0.4268,-0.4269,-0.427,-0.4234,-0.4232,-0.423,-0.4228,-0.4291,-0.4295,-0.4299,0,0,0,0,0,0,0,0,0,0,0,0,0,-0.4127,-0.4069,-0.4208,-0.4199,-0.4199,-0.4268,-0.4269,-0.427,-0.4235,-0.4232,-0.423,-0.4227,-0.429,-0.4295,-0.43,-0.4382,0,0,-0.4315,-0.4317,0,0,0,0,0,0,0,0,-0.4123,-0.4132,-0.42,-0.42,-0.42,-0.4241,-0.4242,-0.4307,-0.4235,-0.4221,-0.4229,-0.4226,-0.4278,-0.4283,-0.43,-0.4385,-0.4387,-0.4315,-0.4318,-0.432,-0.4322,0,0,0,0,0,0,0,-0.4119,-0.4129,-0.4232,-0.4201,-0.4201,-0.4193,-0.4198,-0.4254,-0.4263,-0.4222,-0.422,-0.4227,-0.4277,-0.4296,-0.4302,-0.4388,-0.4315,-0.432,-0.4323,-0.4325,-0.4543,-0.4545,0,0,0,0,0,0,-0.4115,-0.4126,-0.423,-0.4234,-0.4154,-0.4197,-0.4204,-0.423,-0.4262,-0.4265,-0.4229,-0.4225,-0.4288,-0.4296,-0.4304,-0.4402,-0.432,-0.4325,-0.4328,-0.454,-0.4543,-0.4546,0,0,0,0,0,0,-0.4112,-0.4125,-0.4228,-0.4179,-0.4192,-0.4202,-0.4233,-0.4233,-0.4251,-0.4268,-0.4269,-0.4247,-0.4287,-0.4297,-0.4362,-0.4404,-0.4327,-0.4332,-0.4537,-0.4541,-0.4545,-0.46,0,0,0,0,0,0,-0.4108,-0.4124,-0.4155,-0.418,-0.4194,-0.4285,-0.4235,-0.4236,-0.426,-0.4255,-0.4284,-0.4287,-0.4285,-0.4355,-0.4367,-0.4409,-0.4336,-0.4533,-0.4539,-0.4544,-0.4595,-0.4606,-0.4615,0,0,0,0,0,-0.4103,-0.4169,-0.4157,-0.417,-0.4233,-0.4288,-0.4296,-0.4293,-0.4263,-0.4295,-0.4305,-0.4286,-0.4397,-0.4362,-0.4376,-0.442,-0.453,-0.4537,-0.4543,-0.459,-0.4604,-0.4615,0,0,0,0,0,0,-0.4149,-0.4172,-0.4159,-0.4234,-0.4259,-0.4282,-0.4322,-0.4307,-0.4342,-0.4336,-0.433,-0.4337,-0.4406,-0.4419,-0.438,-0.4501,-0.4459,-0.4468,-0.449,-0.4503,-0.4513,-0.451,-0.434,0,0,0,0,0,-0.4168,-0.421,-0.4227,-0.4292,-0.4305,-0.4311,-0.4335,-0.433,-0.4356,-0.4367,-0.4382,-0.4408,-0.4449,-0.4476,-0.4515,-0.4595,-0.4602,-0.4632,-0.4642,-0.4651,-0.466,-0.4704,-0.4718,-0.4567,-0.4567,-0.4567,0,0,-0.4208,-0.4225,-0.4252,-0.4302,-0.4321,-0.4365,-0.4321,-0.4369,-0.4402,-0.4374,-0.4438,-0.4449,-0.4478,-0.4552,-0.4585,-0.4565,-0.4702,-0.4659,-0.4665,-0.467,-0.4712,-0.4726,-0.4738,-0.4572,-0.4571,-0.457,0,0,-0.4303,-0.432,-0.4376,-0.4395,-0.4424,-0.4427,-0.444,-0.4465,-0.4471,-0.4534,-0.4514,-0.4553,-0.4623,-0.4645,-0.4665,-0.4767,-0.4751,-0.4779,-0.4834,-0.4877,-0.4889,-0.4899,-0.4937,-0.495,-0.4788,-0.4788,-0.4788,0,-0.435,-0.4415,-0.4407,-0.4457,-0.448,-0.4455,-0.4512,-0.4531,-0.4571,-0.4588,-0.4564,-0.4651,-0.4669,-0.4748,-0.4772,-0.4789,-0.4805,-0.4777,-0.4887,-0.4898,-0.4908,-0.4943,-0.4957,-0.4791,-0.4791,-0.479,-0.479,0,-0.4471,-0.4516,-0.4558,-0.4596,-0.4623,-0.4677,-0.4678,-0.4706,-0.4698,-0.4703,-0.4768,-0.4788,-0.483,-0.4847,-0.484,-0.4925,-0.4912,-0.4888,-0.4846,-0.4926,-0.4959,-0.4973,-0.4796,-0.4795,-0.4794,-0.4793,0,0,-0.46,-0.4632,-0.4647,-0.4664,-0.4693,-0.4728,-0.478,-0.482,-0.4845,-0.4873,-0.4917,-0.4976,-0.4954,-0.4977,-0.4971,-0.5009,-0.5089,-0.498,-0.4981,-0.5001,-0.5185,-0.5204,-0.522,-0.5077,-0.508,-0.5082,-0.5183,0,-0.4698,-0.4789,-0.4783,-0.4868,-0.491,-0.4886,-0.4931,-0.4954,-0.496,-0.4997,-0.5004,-0.5046,-0.5013,-0.5027,-0.5062,-0.5072,-0.5126,-0.5064,-0.512,-0.5122,-0.5116,-0.5238,-0.5259,-0.5353,-0.5196,-0.5198,-0.5199,0,-0.4826,-0.4857,-0.4947,-0.4969,-0.4986,-0.5027,-0.5063,-0.5098,-0.5123,-0.5125,-0.515,-0.5138,-0.5191,-0.5146,-0.5219,-0.5176,-0.5198,-0.5206,-0.521,-0.5217,-0.5167,-0.525,-0.5383,-0.5398,-0.522,-0.5218,-0.5217,0,-0.4913,-0.4978,-0.504,-0.5055,-0.5081,-0.5111,-0.5123,-0.5145,-0.517,-0.5201,-0.5217,-0.5254,-0.5275,-0.5304,-0.5302,-0.527,-0.5377,-0.5332,-0.5381,-0.5381,-0.5407,-0.5406,-0.5548,-0.5417,-0.5417,-0.5417,-0.5416,0,-0.5026,-0.5082,-0.5079,-0.5118,-0.518,-0.5172,-0.5234,-0.5243,-0.5262,-0.5302,-0.5283,-0.5321,-0.5315,-0.5354,-0.5352,-0.5413,-0.5423,-0.5426,-0.5426,-0.543,-0.5429,-0.5446,-0.544,-0.5421,-0.542,-0.5419,-0.5418,0,-0.5135,-0.5135,-0.5202,-0.5221,-0.5226,-0.5272,-0.5288,-0.5325,-0.5328,-0.5379,-0.539,-0.5396,-0.544,-0.544,-0.5491,-0.549,-0.5565,-0.5556,-0.5557,-0.5556,-0.5606,-0.5602,-0.5765,-0.5787,-0.564,-0.5642,-0.5643,0,-0.5208,-0.5251,-0.5274,-0.5299,-0.5313,-0.5353,-0.5378,-0.5371,-0.5397,-0.5428,-0.5461,-0.5502,-0.5536,-0.5606,-0.5616,-0.5654,-0.5647,-0.5701,-0.5653,-0.5655,-0.565,-0.5648,-0.5653,-0.5712,-0.5713,-0.5715,-0.5716,0,-0.5338,-0.5336,-0.5371,-0.5407,-0.5436,-0.5464,-0.549,-0.5511,-0.5507,-0.5537,-0.5581,-0.5607,-0.5657,-0.57,-0.5736,-0.5749,-0.5733,-0.573,-0.5744,-0.575,-0.5749,-0.5752,-0.5585,-0.5728,-0.5726,-0.5726,-0.5725,-0.5724,-0.5433,-0.547,-0.5492,-0.5532,-0.555,-0.5574,-0.5609,-0.5616,-0.5653,-0.5693,-0.5686,-0.5736,-0.5758,-0.5805,-0.5821,-0.586,-0.5841,-0.5861,-0.5866,-0.5872,-0.5878,-0.5741,-0.5867,-0.5866,-0.5866,-0.5866,-0.5865,0,-0.5564,-0.5576,-0.5613,-0.5649,-0.568,-0.5659,-0.5686,-0.5714,-0.5758,-0.578,-0.5813,-0.5863,-0.5903,-0.5915,-0.5953,-0.5982,-0.5976,-0.5993,-0.5992,-0.5996,-0.5892,-0.5877,-0.5998,-0.5998,-0.5998,-0.5998,-0.5998,-0.5998,-0.5635,-0.5697,-0.5697,-0.5767,-0.5778,-0.5826,-0.5844,-0.5866,-0.5883,-0.5941,-0.5974,-0.598,-0.5998,-0.6037,-0.6073,-0.6075,-0.6091,-0.6112,-0.6112,-0.6016,-0.6003,-0.599,-0.5976,-0.6115,-0.6116,-0.6212,-0.6213,-0.6214]},{"header":{"parameterUnit":"m.s-1","parameterCategory":1,"la1":30.2991,"la2":30.254,"lo1":-89.0895,"lo2":-89.0444,"dy":0.0017,"dx":0.0017,"nx":28,"ny":28,"refTime":"2025-11-27T03:00:00:Z","depth":0,"parameterNumber":3,"parameterNumberName":"V-component_of_WINDS"},"data":[0,0,0,0,0,0,0,0,0,0,0,0,0,0,0,0,0,0,0,0,0,0,0,0,0,0,0,0,0,0,0,0,0,0,0,0,0,0,0,0,0,0,0,0,0,0,0,0,0,0,0,0,0,0,0,0,0,0,-6.1078,-6.1079,0,-6.1233,-6.1234,-6.1236,-6.1152,-6.1147,-6.1143,-6.1139,-6.1292,-6.13,-6.1308,0,0,0,0,0,0,0,0,0,0,0,0,0,-6.0703,-6.071,-6.1077,-6.1079,-6.1081,-6.1232,-6.1234,-6.1236,-6.1152,-6.1147,-6.1142,-6.1137,-6.129,-6.1299,-6.1309,0,0,0,0,0,0,0,0,0,0,0,0,0,-6.0862,-6.0713,-6.1077,-6.1058,-6.1057,-6.1232,-6.1234,-6.1237,-6.1153,-6.1147,-6.1141,-6.1135,-6.1287,-6.1298,-6.131,-6.1511,0,0,-6.1347,-6.1352,0,0,0,0,0,0,0,0,-6.0853,-6.0876,-6.1059,-6.1059,-6.1059,-6.1166,-6.1158,-6.1329,-6.1155,-6.1117,-6.1139,-6.1132,-6.1255,-6.1269,-6.1312,-6.1518,-6.1524,-6.1348,-6.1355,-6.136,-6.1364,0,0,0,0,0,0,0,-6.0842,-6.0869,-6.1138,-6.1061,-6.1062,-6.1039,-6.1055,-6.119,-6.1219,-6.112,-6.1114,-6.1134,-6.1254,-6.1301,-6.1315,-6.1527,-6.1347,-6.1358,-6.1366,-6.137,-6.1904,-6.191,0,0,0,0,0,0,-6.0833,-6.086,-6.1134,-6.1143,-6.0939,-6.1051,-6.1069,-6.1138,-6.1218,-6.1224,-6.1139,-6.1129,-6.1283,-6.1301,-6.132,-6.156,-6.136,-6.1371,-6.1378,-6.1897,-6.1905,-6.1913,0,0,0,0,0,0,-6.0826,-6.0859,-6.1127,-6.1,-6.1033,-6.1064,-6.1143,-6.1145,-6.1191,-6.1232,-6.1236,-6.1182,-6.1279,-6.1303,-6.1464,-6.1564,-6.1377,-6.1388,-6.1889,-6.1899,-6.1909,-6.2042,0,0,0,0,0,0,-6.0815,-6.0856,-6.0934,-6.1003,-6.104,-6.1271,-6.1149,-6.1152,-6.1213,-6.1202,-6.1274,-6.1279,-6.1276,-6.1447,-6.1476,-6.1577,-6.1397,-6.188,-6.1893,-6.1906,-6.2029,-6.2056,-6.2079,0,0,0,0,0,-6.0802,-6.0964,-6.0939,-6.0972,-6.1139,-6.1277,-6.1298,-6.1293,-6.1221,-6.1299,-6.1325,-6.1277,-6.1549,-6.1464,-6.1496,-6.1603,-6.1873,-6.189,-6.1905,-6.2017,-6.205,-6.2078,0,0,0,0,0,0,-6.0905,-6.0973,-6.0945,-6.1135,-6.1201,-6.1263,-6.136,-6.1327,-6.1414,-6.1399,-6.1387,-6.1404,-6.1571,-6.1603,-6.1507,-6.18,-6.17,-6.1723,-6.1774,-6.1806,-6.183,-6.1819,-6.1407,0,0,0,0,0,-6.095,-6.1059,-6.1111,-6.1273,-6.1308,-6.1329,-6.1389,-6.1379,-6.1446,-6.1473,-6.1511,-6.1577,-6.1677,-6.1743,-6.1837,-6.2033,-6.2046,-6.2121,-6.2146,-6.2167,-6.2187,-6.2292,-6.2326,-6.1964,-6.1964,-6.1964,0,0,-6.1043,-6.1094,-6.1163,-6.1295,-6.1345,-6.1457,-6.1353,-6.1475,-6.1557,-6.1491,-6.1646,-6.1676,-6.1748,-6.1928,-6.2008,-6.1959,-6.2289,-6.2187,-6.2203,-6.2212,-6.2311,-6.2346,-6.2376,-6.1975,-6.1973,-6.1971,0,0,-6.1271,-6.132,-6.1461,-6.1514,-6.1591,-6.1604,-6.1638,-6.1705,-6.1723,-6.1879,-6.1832,-6.1928,-6.21,-6.2154,-6.2203,-6.2451,-6.241,-6.2482,-6.2612,-6.2715,-6.2743,-6.2768,-6.2856,-6.2888,-6.2501,-6.2502,-6.2502,0,-6.1376,-6.1544,-6.1537,-6.1663,-6.1722,-6.167,-6.1811,-6.1862,-6.1966,-6.2007,-6.195,-6.2166,-6.2211,-6.2401,-6.2462,-6.2504,-6.2541,-6.2474,-6.274,-6.2765,-6.2789,-6.2872,-6.2906,-6.251,-6.2509,-6.2508,-6.2508,0,-6.167,-6.1787,-6.1891,-6.1995,-6.2065,-6.2198,-6.2209,-6.2281,-6.2265,-6.2284,-6.2442,-6.2494,-6.2598,-6.2642,-6.2627,-6.2831,-6.2798,-6.2741,-6.264,-6.2832,-6.291,-6.2942,-6.2522,-6.2519,-6.2517,-6.2514,0,0,-6.1967,-6.2065,-6.2104,-6.215,-6.2232,-6.2321,-6.2451,-6.2555,-6.2616,-6.2689,-6.2797,-6.2945,-6.2893,-6.2949,-6.2939,-6.303,-6.3222,-6.2962,-6.2963,-6.3008,-6.3449,-6.3492,-6.3529,-6.3195,-6.3201,-6.3206,-6.3443,0,-6.2199,-6.2429,-6.2426,-6.2638,-6.2745,-6.2697,-6.281,-6.2871,-6.2892,-6.2984,-6.3005,-6.311,-6.3034,-6.3068,-6.3155,-6.318,-6.331,-6.3163,-6.3294,-6.3298,-6.3278,-6.357,-6.3615,-6.3837,-6.3474,-6.3479,-6.3483,0,-6.2502,-6.2587,-6.2811,-6.2877,-6.2922,-6.3024,-6.3118,-6.3208,-6.3276,-6.3284,-6.3348,-6.3324,-6.3453,-6.3348,-6.3527,-6.3426,-6.3479,-6.35,-6.3508,-6.352,-6.3403,-6.359,-6.3908,-6.3941,-6.3531,-6.3527,-6.3524,0,-6.2696,-6.2866,-6.3022,-6.3063,-6.3145,-6.3217,-6.3254,-6.3316,-6.3378,-6.346,-6.35,-6.3595,-6.3647,-6.372,-6.3722,-6.3645,-6.3902,-6.3797,-6.3911,-6.3912,-6.3968,-6.3964,-6.4299,-6.4002,-6.4002,-6.4001,-6.4,0,-6.2956,-6.3095,-6.311,-6.3206,-6.3359,-6.3354,-6.3505,-6.3534,-6.359,-6.3689,-6.3652,-6.3746,-6.3742,-6.3836,-6.3838,-6.3985,-6.4009,-6.4018,-6.4017,-6.4022,-6.4021,-6.4056,-6.4041,-6.401,-6.4008,-6.4006,-6.4005,0,-6.3199,-6.3215,-6.3382,-6.3446,-6.3465,-6.3575,-6.3628,-6.3718,-6.3735,-6.3861,-6.389,-6.3916,-6.4026,-6.4035,-6.416,-6.4161,-6.434,-6.4321,-6.4318,-6.4314,-6.4428,-6.4418,-6.4797,-6.4847,-6.4518,-6.4521,-6.4524,0,-6.3364,-6.347,-6.3546,-6.3611,-6.3652,-6.3757,-6.3821,-6.3818,-6.3886,-6.3972,-6.4051,-6.4157,-6.4242,-6.4418,-6.4447,-6.4543,-6.4527,-6.4653,-6.4541,-6.4542,-6.4529,-6.4523,-6.4533,-6.4675,-6.4679,-6.4682,-6.4684,0,-6.3656,-6.3659,-6.3753,-6.3852,-6.3929,-6.4005,-6.4077,-6.4131,-6.4137,-6.4215,-6.4327,-6.4393,-6.4523,-6.4628,-6.4722,-6.4757,-6.4722,-6.4719,-6.4751,-6.4757,-6.4751,-6.4756,-6.4377,-6.4711,-6.4708,-6.4706,-6.4705,-6.4704,-6.3865,-6.3957,-6.4025,-6.4131,-6.4185,-6.4252,-6.434,-6.4369,-6.4463,-6.457,-6.4562,-6.4686,-6.475,-6.4873,-6.4916,-6.5011,-6.4968,-6.5014,-6.5026,-6.5037,-6.5049,-6.4736,-6.5028,-6.5027,-6.5027,-6.5026,-6.5026,0,-6.4155,-6.4196,-6.4294,-6.4396,-6.4479,-6.4441,-6.4517,-6.4589,-6.4699,-6.4763,-6.4848,-6.4977,-6.5078,-6.5116,-6.5215,-6.5284,-6.527,-6.531,-6.5305,-6.5313,-6.5082,-6.5045,-6.5319,-6.5319,-6.5319,-6.5319,-6.5319,-6.5319,-6.4315,-6.4468,-6.4479,-6.4658,-6.4697,-6.4821,-6.4868,-6.4929,-6.498,-6.5126,-6.5212,-6.5236,-6.5289,-6.5391,-6.5482,-6.549,-6.5528,-6.5575,-6.5576,-6.5359,-6.533,-6.5301,-6.5267,-6.5583,-6.5584,-6.58,-6.5802,-6.5803]}]]